Regional Weather Roundup
Issued by NWS

Home | Current Version | Previous Version | Text Only | Print | Product List | Glossary On
Versions: 1 2 3 4 5 6 7 8 9 10 11 12 13 14 15 16 17 18 19 20 21 22 23 24 25 26 27 28 29 30 31 32 33 34 35 36 37 38 39 40 41 42 43 44 45 46 47 48 49 50
000
ASUS43 KLSX 241659
RWRMO

WEATHER SUMMARY FOR MISSOURI
NATIONAL WEATHER SERVICE SPRINGFIELD MO
1100 AM CST WED DEC 24 2014

NOTE: "FAIR" INDICATES FEW OR NO CLOUDS BELOW 12,000 FEET WITH NO
       SIGNIFICANT WEATHER AND/OR OBSTRUCTIONS TO VISIBILITY.
       CURRENT SKY AND/OR WEATHER CONDITIONS ARE NOT AVAILABLE FOR
       CHILLICOTHE AND FARMINGTON.

MOZ001>031-035>038-043-044-053-054-241800-
...NORTHERN AND WESTERN MISSOURI...

CITY           SKY/WX    TMP DP  RH WIND       PRES   REMARKS
KANSAS CTY INT CLOUDY    35  32  88 NW13      29.84S WCI  26
KANSAS C DTWN  CLOUDY    37  32  82 NW12      29.85S WCI  29
LEE`S SUMMIT   CLOUDY    36  32  85 NW10      29.84R WCI  28
ST JOSEPH      CLOUDY    36  32  85 NW17      29.86S WCI  26
CHILLICOTHE      N/A     37  33  85 NW7G17    29.81R
KIRKSVILLE     CLOUDY    36  32  85 N12       29.74S WCI  28

$$
MOZ066>068-077>081-088>096-101>105-241800-
...SOUTHWEST MISSOURI...

CITY           SKY/WX    TMP DP  RH WIND       PRES   REMARKS
SPRINGFIELD    FLURRIES  36  33  89 NW9       29.80S WCI  29
JOPLIN         CLOUDY    37  33  85 NW14      29.88S WCI  28

$$
MOZ032>034-039>042-045>050-055>058-069>072-241800-
...CENTRAL MISSOURI...

CITY           SKY/WX    TMP DP  RH WIND       PRES   REMARKS
COLUMBIA       CLOUDY    36  34  92 NW14      29.74S WCI  27
JEFFERSON CITY CLOUDY    37  34  89 NW12      29.76S WCI  29
ROLLA          CLOUDY    35  33  92 MISG      29.72F FOG
SEDALIA        CLOUDY    37  33  85 NW10      29.80S WCI  30
WHITEMAN AFB   CLOUDY    37  32  82 NW15      29.80S WCI  28
WARRENSBURG    DRIZZLE   36  34  93 NW12      29.83R WCI  27
OSAGE BEACH    CLOUDY    37  32  81 W6        29.77S

$$
MOZ051-052-059>065-241800-
...EAST CENTRAL MISSOURI...

CITY           SKY/WX    TMP DP  RH WIND       PRES   REMARKS
ST LOUIS INTL  CLOUDY    41  35  79 W10       29.71F
SPIRIT OF STL  LGT RAIN  38  36  92 W7        29.71F FOG
ST CHARLES     CLOUDY    38  36  92 W12       29.70F

$$
MOZ072>076-082>087-097>100-106>115-241800-
...SOUTH CENTRAL AND SOUTHEAST MISSOURI...

CITY           SKY/WX    TMP DP  RH WIND       PRES   REMARKS
CAPE GIRARDEAU LGT RAIN  40  37  89 W10       29.73F
FARMINGTON     CLOUDY    37  34  87 W7        29.73F
POPLAR BLUFF   CLOUDY    42  34  73 NW10      29.76S
WEST PLAINS    CLOUDY    39  32  76 W9        29.77F

$$



USA.gov is the U.S. government's official web portal to all federal, state and local government web resources and services.